WELCOME TO TCFT

Voted One Of The Best Flight Schools In The USA

 

 

BECOME AN AIRLINE PILOT

Treasure Coast Flight Training is committed to serving all of your aviation needs as a full service flight academy, aircraft rental facility, and pilot shop

 

 

Questions About Becoming An Airline Pilot?

 

 

What Our Graduates Say

 

 

The training I received with Treasure Coast Flight Training prepared me to become a professional pilot

 

Nathan Meisner

Pilot - Cessna Caravan - USA

Professional yet relaxed environment. Truly an enjoyable experience to fly with TCFT

 

Sophia

Certified Flight Instructor - China

The training I needed to get me to where I am now!

 

Enderson Rafael

Pilot - Go Airlines - Brazil

Thank you TCFT for making me an airline pilot!

 

Kyle Barrett

Pilot - GoJet Airlines - USA

Current Conditions

 

Metar

 

KSUA 240335Z AUTO 09005KT 10SM SCT025 28/22 A3001 RMK AO2 LTG DSNT W

 

TAF

 

TAF KSUA 231749Z 2318/2418 09010KT P6SM VCSH SCT035 SCT250 FM232000 09008KT P6SM SCT035 SCT250 FM240200 09004KT P6SM SCT030 FM241400 10008KT P6SM SCT025 SCT250

 

 

Look No Further. Get Started Today